User: anonymous   Login
Location: Kuffner-Sternwarte
(48.2130°N, 16.2960°E)
Time: 21:22:08
(UTC+01:00)
Language:

N. Korean satellite - Orbit

View from above orbital plane
View from above orbital plane
View from above satellite
View from above satellite

Ground track
Ground track

The orbit data is extracted from the following two-line orbital elements,

1 39026U 12072A   19081.95857853 +.00001748 +00000-0 +66090-4 0  9996
2 39026 097.2119 087.9622 0039866 054.7850 305.7111 15.27553654348147
Epoch (UTC): 22 March 2019 23:00:21
Eccentricity: 0.0039866
inclination: 97.2119°
perigee height: 456 km
apogee height: 510 km
right ascension of ascending node: 87.9622°
argument of perigee: 54.7850°
revolutions per day: 15.27553654
mean anomaly at epoch: 305.7111°
orbit number at epoch: 34814

The dashed part of the orbit path shows where the satellite is in the earth's shadow,  

DLR